Regional Weather Roundup
Issued by NWS

Home | Current Version | Previous Version | Text Only | Print | Product List | Glossary Off
Versions: 1 2 3 4 5 6 7 8 9 10 11 12 13 14 15 16 17 18 19 20 21 22 23 24 25 26 27 28 29 30 31 32 33 34 35 36 37 38 39 40 41 42 43 44 45 46 47 48 49 50

613
ASUS43 KFSD 171410
RWRSD

WEATHER ROUNDUP FOR SOUTH DAKOTA
NATIONAL WEATHER SERVICE SIOUX FALLS SD
900 AM CDT THU AUG 17 2017

NOTE: "FAIR" INDICATES FEW OR NO CLOUDS BELOW 12,000 FEET WITH NO
SIGNIFICANT WEATHER AND/OR OBSTRUCTIONS TO VISIBILITY.


SDZ001>005-009-010-012>017-171500-
NORTHWEST AND NORTH CENTRAL SOUTH DAKOTA

CITY           SKY/WX    TMP DP  RH WIND       PRES   REMARKS
BUFFALO          N/A     58  51  78 S6        29.86R
FAITH            N/A     65  52  62 S15       29.92S
MOBRIDGE       SUNNY     63  60  90 CALM      29.91R
$$

SDZ012>016-024>037-041>051-057-063-072>074-171500-
SOUTHWEST AND SOUTH CENTRAL SOUTH DAKOTA

CITY           SKY/WX    TMP DP  RH WIND       PRES   REMARKS
RAPID CTY ARPT CLOUDY    62  52  69 SE6       29.95S
PIERRE         SUNNY     60  51  72 CALM      29.94R
CUSTER         CLOUDY    61  44  53 W7        30.10R
ELLSWORTH AFB  CLOUDY    66  52  59 S6        29.93S
PHILIP         SUNNY     61  53  75 SE3       29.95S
PINE RIDGE     SUNNY     63  56  78 SW6       30.00S
SPEARFISH      FAIR      73  45  35 CALM      29.97R
WINNER         FAIR      66  51  58 SW5       29.97R
$$

SDZ004>011-016>023-039-040-171500-
NORTHEAST SOUTH DAKOTA

CITY           SKY/WX    TMP DP  RH WIND       PRES   REMARKS
ABERDEEN       SUNNY     66  60  81 NW9       29.89R
WATERTOWN      MOSUNNY   64  60  87 NW17G23   29.85R
BROOKINGS      CLOUDY    63  58  83 NW18G24   29.86R
SISSETON         N/A     64  60  87 NW17G25   29.82R
$$

SDZ017-020-022-023-036>040-048>070-171500-
SOUTHEAST SOUTH DAKOTA

CITY           SKY/WX    TMP DP  RH WIND       PRES   REMARKS
SIOUX FALLS    PTSUNNY   65  61  87 NW18G26   29.87R
HURON          SUNNY     62  57  83 NW12      29.91R
CHAMBERLAIN    SUNNY     62  57  86 SW3       29.97R
MITCHELL       SUNNY     63  57  81 W10       29.92R
YANKTON        SUNNY     66  59  78 NW15      29.92
$$

ABBREVIATIONS USED IN REMARKS
   TC - TEMPERATURE IN CELSIUS
  WCI - WIND CHILL INDEX
   HX - HEAT INDEX
  VSB - VISIBILITY





USA.gov is the U.S. government's official web portal to all federal, state and local government web resources and services.